SCP
0 0 0 0 0 0 0 0 0 0 -0 0 -0 -0 -0 0 -0 -0 0 -0 0 0 0 0 0 0 0 0 0 0 0 0 0 0 -0 -0 0 0 -0 -0 -0 -0 -0 -0 -0 -0 -0 -0 -0
0 0 -0 0 0 0 0 0 0 0 -0 -0 0 -0 -0 -0 0 0 0 -0 -0 -0 -0 0 -0 0 -0 -0 0 0 0 0 -0 -0 -0 -0 0 0 -0 -0 0 -0 -0 -0 -0 -0 -0 -0 -0
0 0 0 0 0 0 0 0 0 0 0 -0 0 0 0 -0 0 -0 0 -0 0 -0 -0 -0 -0 0 0 -0 -0 0 -0 0 -0 0 0 0 0 -0 -0 -0 -0 -0 -0 -0 -0 -0 -0 0 0
0 0 0 0 0 0 0 0 0 0 0 0 0 0 0 0 -0 -0 -0 -0 -0 0 -0 -0 -0 0 0 -0 -0 -0 -0 -0 0 0 0 0 0 -0 -0 -0 -0 -0 -0 -0 -0 -0 0 0 0
0 0 0 0 0 0 0 0 0 0 0 0 0 0 0 0 -0 -0 -0 -0 -0 -0 -0 0 -0 0 0 0 0 -0 -0 0 0 -0 -0 -0 0 -0 -0 -0 -0 -0 -0 -0 -0 -0 -0 -0 0
0 0 0 0 0 0 0 0 0 0 0 0 0 0 0 -0 -0 -0 -0 -0 -0 -0 -0 -0 -0 0 0 -0 0 -0 -0 -0 -0 -0 -0 -0 -0 -0 -0 -0 -0 -0 -0 -0 -0 -0 -0 -0 -0
0 0 0 0 0 0 0 0 0 0 0 0 0 0 0 -0 -0 -0 -0 -0 -0 -0 -0 -0 -0 -0 -0 -0 -0 -0 -0 -0 -0 -0 -0 -0 -0 -0 -0 -0 -0 -0 -0 -0 -0 -0 -0 0 0
0 0 0 0 0 0 0 0 0 0 0 0 0 0 0 -0 -0 -0 -0 -0 -0 -0 -0 -0 -0 -0 -0 -0 -0 -0 -0 -0 -0 -0 -0 -0 -0 -0 -0 -0 -0 -0 -0 -0 -0 -0 0 0 0
0 0 0 0 0 0 0 0 0 0 0 0 0 0 0 -0 0 0 0 -0 -0 -0 -0 -0 -0 -0 -0 -0 -0 -0 -0 -0 -0 -0 -0 -0 -0 -0 -0 -0 -0 -0 -0 -0 -0 0 0 0 0
0 0 0 0 0 0 0 0 0 0 0 0 0 0 0 0 0 0 0 0 -0 -0 -0 -0 -0 -0 -0 -0 -0 -0 -0 -0 -0 -0 -0 -0 -0 -0 -0 -0 -0 -0 0 0 0 0 0 0 0
0 0 0 0 0 0 0 0 0 0 0 0 0 0 0 0 0 0 0 0 -0 -0 0 -0 0 -0 -0 -0 0 0 0 0 0 -0 -0 -0 -0 -0 -0 -0 -0 -0 0 0 0 0 0 0 0
0 0 0 0 0 0 0 0 0 0 0 0 0 0 0 0 0 0 0 0 0 -0 -0 -0 -0 0 -0 0 0 0 0 0 0 -0 -0 -0 -0 -0 -0 0 0 0 0 0 0 0 0 0 0
0 0 0 0 0 0 0 0 0 0 0 0 0 0 0 0 0 0 0 0 0 0 0 -0 -0 -0 0 0 0 0 0 0 0 -0 -0 -0 0 0 0 0 0 0 0 0 0 0 0 0 0
0 0 0 0 0 0 0 0 0 0 0 0 0 0 0 0 0 0 0 0 0 0 0 0 0 -0 0 -0 0 0 0 0 0 0 0 0 0 0 0 0 0 0 0 0 0 0 0 0 0
0 0 0 0 0 0 0 0 0 0 0 0 0 0 0 0 0 0 0 0 0 0 0 0 0 0 0 0 0 0 0 0 0 0 0 0 0 0 0 0 0 0 0 0 0 0 0 0 0
0 0 0 0 0 0 0 0 0 0 0 0 0 0 0 0 0 0 0 0 0 0 0 0 0 0 0 0 0 0 0 0 0 0 0 0 0 0 0 0 0 0 0 0 0 0 0 0 0
0 0 0 0 0 0 0 0 0 0 0 0 0 0 0 0 0 0 0 0 0 0 0 0 0 0 0 0 0 0 0 0 0 0 0 0 0 0 0 0 0 0 0 0 0 0 0 0 0
0 0 0 0 0 0 0 0 0 0 0 0 0 0 0 0 0 0 0 0 0 0 0 0 0 0 0 0 0 0 0 0 0 0 0 0 0 0 0 0 0 0 0 0 0 0 0 0 0
0 0 0 0 0 0 0 0 0 0 0 0 0 0 0 0 0 0 0 0 0 0 0 0 0 0 0 0 0 0 0 0 0 0 0 0 0 0 0 0 0 0 0 0 0 0 0 0 0
0 0 0 0 0 0 0 0 0 0 0 0 0 0 0 0 0 0 0 0 0 0 0 0 0 0 0 0 0 0 0 0 0 0 0 0 0 0 0 0 0 0 0 0 0 0 0 0 0
0 0 0 0 0 0 0 0 0 0 0 0 0 0 0 0 0 0 0 0 0 0 0 0 0 0 0 0 0 0 0 0 0 0 0 0 0 0 0 0 0 0 0 0 0 0 0 0 0
0 0 0 0 0 0 0 0 -0 0 0 0 0 0 0 0 0 0 0 0 0 0 0 0 0 0 0 0 0 0 0 0 0 0 0 0 0 0 0 0 0 0 0 0 0 0 0 0 0
0 0 0 0 0 0 0 0 -0 0 0 0 0 0 0 0 0 0 0 0 0 0 0 0 0 0 0 0 0 0 0 0 0 0 0 0 0 0 0 0 0 0 0 0 0 0 0 0 0
0 0 0 0 0 0 0 0 -0 0 0 0 0 0 0 0 0 0 0 0 0 0 0 0 0 0 0 0 0 0 0 0 0 0 0 0 0 0 0 0 0 0 0 0 0 0 0 0 0
0 0 0 0 0 0 0 0 0 0 0 0 0 0 0 0 0 0 0 0 0 0 0 0 0 0 0 0 0 0 0 0 0 0 0 0 0 0 0 0 0 0 0 0 0 0 0 0 0
0 0 0 0 0 0 0 0 0 0 0 -0 0 0 0 0 0 0 0 0 0 0 0 0 0 0 0 0 0 0 0 0 0 0 0 0 0 0 0 0 0 0 0 0 0 0 0 0 0
0 0 0 0 0 0 0 0 0 0 0 0 0 0 0 0 0 0 0 0 0 0 0 0 0 0 0 0 0 0 0 0 0 0 0 0 0 1 0 0 0 0 0 0 0 0 0 0 0
0 0 0 0 0 0 0 0 0 0 0 0 0 0 0 0 0 0 0 0 0 0 0 0 0 0 0 0 0 0 0 0 0 0 0 0 0 0 0 0 0 0 0 0 0 0 0 0 0
0 0 0 0 0 0 0 0 0 0 0 0 0 0 0 0 0 0 0 0 0 0 0 0 0 0 0 0 0 0 0 0 0 0 0 0 0 0 0 0 0 0 0 0 0 0 0 0 0
0 0 0 0 0 0 0 0 0 0 0 0 0 0 0 0 0 0 0 0 0 0 0 0 0 0 0 0 0 0 0 0 0 0 0 0 0 0 0 0 0 0 0 0 0 0 0 0 0
Wind_Speed_500mb
13 20 18 9 10 9 7 11 8 14 14 9 18 3 9 14 15 9 32 24 30 22 18 22 26 21 18 20 19 25 24 24 24 20 17 19 21 20 19 21 23 23 22 24 26 27 28 29 33
10 13 7 8 12 13 11 14 16 17 18 18 14 7 5 11 12 27 28 33 31 25 20 21 26 20 17 21 22 21 19 18 21 18 19 15 16 17 18 23 22 23 24 27 29 29 29 31 33
8 5 11 7 12 12 6 13 19 16 20 20 9 2 4 10 13 37 23 39 33 26 23 22 24 21 19 19 20 20 21 24 23 19 17 12 19 20 23 27 24 18 27 28 28 29 29 29 30
5 4 6 12 10 4 11 11 22 22 10 10 1 9 9 7 26 19 40 36 34 28 23 24 22 20 18 18 21 21 20 17 20 18 15 21 26 22 20 29 21 18 26 26 26 28 29 29 29
8 7 4 8 13 5 3 3 17 21 18 19 13 10 7 16 21 33 41 35 32 29 26 24 22 20 18 19 21 23 23 21 20 19 19 22 22 24 32 27 21 20 23 22 26 27 28 29 29
16 9 12 19 19 8 5 7 20 20 16 15 11 13 10 20 27 42 38 34 30 30 28 25 23 20 20 19 21 24 23 24 24 25 23 24 25 25 26 22 24 23 22 23 25 25 26 27 27
19 14 23 15 11 14 11 14 25 23 19 18 3 14 9 27 28 48 36 34 33 30 29 27 24 23 21 20 19 21 21 22 23 22 20 21 19 21 21 22 22 22 21 22 23 24 24 25 26
15 12 18 15 16 12 16 19 21 26 19 13 12 10 12 38 40 50 35 32 33 31 30 28 26 23 23 22 19 19 20 18 18 16 17 18 16 16 17 18 19 19 20 21 22 22 22 23 24
9 15 20 24 18 9 13 18 14 15 13 19 17 2 9 46 48 54 39 34 32 32 32 29 29 25 24 23 21 18 18 16 15 14 14 16 13 13 11 14 15 15 17 18 19 19 19 20 22
13 19 27 5 12 5 15 17 21 15 24 23 20 12 25 39 52 58 51 45 39 36 39 37 29 27 25 23 22 19 18 15 14 13 13 17 14 9 9 10 11 11 12 14 15 15 14 17 13
14 21 16 12 8 3 6 16 16 27 25 29 31 28 36 42 51 56 55 50 42 40 43 43 40 29 28 23 25 21 20 18 16 13 12 14 12 10 7 8 8 7 7 9 10 12 11 10 9
11 24 17 13 13 10 9 7 17 32 23 15 22 35 42 45 53 57 55 47 45 42 42 46 42 38 34 28 27 22 21 19 16 14 12 14 12 11 9 6 5 4 4 5 5 7 8 7 6
31 29 25 14 15 13 10 18 20 29 36 14 18 37 42 41 46 48 48 45 44 43 42 48 45 43 39 34 27 22 24 22 20 17 16 14 14 13 11 8 6 5 4 3 2 1 5 5 5
33 22 25 19 18 12 13 18 9 19 29 30 25 37 39 42 44 43 46 49 53 45 44 46 49 41 43 40 35 29 23 26 25 23 21 19 17 15 13 11 10 8 7 6 5 4 4 5 4
15 22 16 20 19 12 15 24 24 28 21 36 32 34 35 36 41 46 46 50 55 47 42 45 50 45 43 41 36 34 31 29 29 29 26 23 22 20 18 17 15 13 10 9 9 8 7 8 8
21 17 20 25 26 12 16 39 34 38 31 37 39 38 38 40 44 44 43 46 45 55 47 53 50 50 45 43 41 37 35 34 33 31 32 31 28 26 23 22 21 18 15 13 11 10 10 9 10
29 21 34 20 36 19 24 31 42 22 36 39 40 43 41 38 40 42 44 46 49 53 54 54 53 52 49 45 44 40 41 39 35 36 37 36 34 32 29 28 24 23 18 13 14 18 16 13 11
25 31 31 34 25 32 26 35 31 20 33 40 38 38 39 40 46 48 48 47 48 49 50 50 54 54 51 47 46 43 44 43 38 37 40 40 39 38 34 31 28 22 18 17 18 15 22 19 19
34 35 29 28 19 22 38 36 40 37 30 33 37 41 42 46 40 43 50 50 50 50 52 50 52 54 54 57 55 53 49 42 44 41 41 41 40 40 35 29 27 27 24 21 20 18 14 14 17
37 35 29 7 15 15 28 38 37 42 36 34 42 43 43 42 39 48 53 56 58 57 59 57 57 58 62 61 59 57 50 46 45 41 39 39 46 39 35 35 33 33 30 29 28 26 22 21 22
32 31 29 24 18 19 13 33 37 42 48 42 42 37 47 45 47 48 52 56 60 65 67 67 66 63 63 63 58 57 47 50 49 48 46 46 42 44 43 41 39 38 35 35 34 34 35 34 31
32 25 17 17 17 16 16 14 23 47 43 38 54 51 49 46 51 49 54 57 62 68 66 67 66 65 64 63 66 64 63 62 59 55 54 49 47 43 45 48 47 46 43 43 41 42 43 44 44
13 25 20 15 15 15 18 12 11 19 31 45 51 60 61 61 55 55 62 66 66 65 71 72 69 68 72 72 70 68 66 63 57 52 50 47 47 47 46 47 54 52 48 45 44 42 43 48 48
29 25 18 10 10 14 29 22 16 25 32 33 46 65 69 67 65 60 62 64 63 63 71 72 74 73 73 75 72 73 72 65 58 58 53 54 48 45 48 40 38 41 40 41 38 43 44 45 46
29 34 11 12 13 14 5 19 30 12 19 28 30 47 57 62 64 59 52 66 67 69 69 70 75 78 77 75 74 75 74 69 65 63 61 57 55 54 49 50 43 40 38 42 42 44 44 45 44
36 36 11 15 11 12 2 15 11 22 35 41 26 25 18 26 35 45 53 62 68 72 69 69 76 80 81 79 76 72 73 75 73 69 68 64 61 57 51 53 52 48 44 45 43 43 44 41 39
34 34 2 9 4 3 14 16 16 32 20 19 23 26 34 32 29 33 43 48 51 57 64 71 76 81 79 77 71 68 73 73 71 72 71 69 62 59 60 59 55 50 51 50 43 45 45 42 42
26 25 16 10 12 11 6 8 17 4 10 8 9 23 25 30 33 35 37 35 35 43 50 60 64 65 67 63 62 63 65 69 67 67 67 65 61 65 58 58 60 55 52 52 50 47 45 44 45
16 25 14 14 7 6 5 4 2 3 6 9 10 12 11 15 19 25 35 38 34 32 38 46 54 56 56 57 56 55 56 58 59 62 63 65 67 65 62 64 63 59 56 56 50 48 47 48 46
29 28 30 13 12 3 5 7 7 6 1 7 9 8 3 5 11 15 21 27 28 29 31 35 42 48 49 49 48 49 52 54 56 59 61 65 61 58 58 60 59 55 52 48 51 48 49 50 48
Wind_Direction_500mb
321 344 346 292 245 253 143 153 110 137 141 96 117 135 32 15 3 62 139 135 133 135 125 116 118 112 116 100 117 144 132 127 118 120 111 108 102 97 92 82 73 80 83 73 71 66 62 65 70
319 338 314 276 261 223 144 129 168 154 120 142 126 128 157 87 68 131 139 144 135 134 129 126 127 119 115 104 112 132 157 150 139 134 121 105 101 93 102 110 85 78 80 77 72 70 68 73 74
298 348 280 292 265 259 126 171 147 116 138 155 130 15 73 89 109 138 159 145 139 136 138 135 134 130 116 100 109 117 115 115 114 117 111 104 96 100 100 104 96 90 81 74 74 69 68 70 70
287 308 217 253 242 290 355 173 131 143 146 170 163 137 97 138 146 151 148 148 143 141 146 139 141 130 116 100 104 107 113 115 115 108 110 117 112 103 106 113 104 93 82 74 72 67 66 67 72
232 217 215 252 241 263 187 299 174 176 160 175 187 136 101 126 150 148 149 149 150 144 150 145 143 140 128 110 110 107 109 108 111 110 106 105 110 94 111 109 108 93 86 79 70 68 69 71 73
224 260 224 210 212 185 195 194 190 188 162 151 193 154 126 157 158 155 152 153 154 153 154 151 149 145 136 121 115 112 108 103 106 103 103 100 97 100 103 100 106 92 82 73 68 69 69 72 72
243 227 244 249 212 199 197 175 196 188 182 189 180 187 133 165 172 161 157 160 159 161 160 159 156 151 145 136 127 122 117 113 110 115 120 110 109 104 99 98 94 91 82 73 68 67 68 69 68
232 248 242 233 218 225 152 175 199 197 184 147 184 188 179 178 175 166 162 167 164 165 165 163 164 159 154 153 149 128 128 127 125 122 102 110 107 98 97 99 92 85 77 70 68 71 72 73 69
202 233 230 228 222 199 153 192 195 188 171 189 194 206 118 179 176 170 169 173 176 170 178 169 169 168 167 166 160 153 146 140 138 134 128 109 99 108 106 103 100 90 80 71 66 67 71 77 70
204 230 235 206 249 221 174 213 174 190 195 203 190 183 150 182 183 180 178 178 183 180 184 183 172 176 174 174 167 167 165 161 157 147 137 140 146 148 115 117 108 100 88 79 74 69 72 66 67
200 233 245 200 191 194 206 207 201 211 200 217 208 188 170 179 187 190 191 192 188 187 193 191 179 184 179 186 178 180 181 182 176 170 159 160 157 154 126 124 124 116 105 83 74 69 73 73 76
200 235 246 192 174 168 203 212 208 224 211 202 217 191 180 189 193 197 198 194 192 194 202 197 196 196 193 196 190 194 194 194 193 188 183 176 172 164 170 156 152 150 146 131 99 75 68 69 63
219 204 222 197 182 194 183 220 230 227 233 241 182 185 189 195 198 200 203 198 198 198 198 206 202 205 205 203 203 199 205 205 206 206 203 197 192 188 189 193 206 217 218 199 180 14 27 39 29
203 201 210 201 202 205 219 226 194 240 227 217 192 191 195 198 201 198 200 204 206 202 202 209 204 209 210 214 217 207 210 213 217 217 215 211 209 214 212 215 219 226 234 241 247 270 304 323 340
189 190 200 199 201 219 219 235 225 232 211 210 204 197 198 203 203 206 204 208 212 202 205 207 210 207 215 213 224 222 220 222 223 225 226 226 228 230 233 233 233 239 239 245 252 263 277 294 301
183 208 206 215 208 210 202 250 231 226 205 209 211 203 199 202 207 208 208 209 211 208 207 210 213 212 219 215 225 226 227 229 229 232 235 232 232 235 238 241 238 242 246 249 258 266 275 277 282
191 196 211 211 213 199 213 249 243 211 213 218 211 209 204 203 208 211 208 207 207 211 210 215 214 216 220 221 226 226 232 230 233 232 236 238 237 238 241 247 240 241 245 266 283 284 270 264 277
179 214 202 211 194 211 218 238 244 209 217 221 214 212 212 207 213 207 209 206 206 208 209 214 214 217 220 223 225 226 230 229 227 233 238 239 237 241 244 242 237 243 251 259 265 276 276 269 277
190 203 201 210 154 199 227 237 236 228 217 220 221 213 216 217 208 208 208 206 205 206 206 207 207 214 215 218 222 224 228 228 232 233 235 239 238 245 240 230 233 246 252 258 256 269 291 278 277
200 200 210 172 166 221 241 242 240 240 215 219 219 218 219 217 208 208 207 207 209 208 210 208 211 215 218 224 228 231 235 237 242 245 240 240 244 241 235 240 241 244 250 255 261 267 272 271 275
192 198 209 221 178 232 279 262 245 238 239 229 227 224 222 219 213 210 205 208 212 214 215 217 218 217 220 224 228 232 233 237 236 236 241 238 240 238 241 244 247 250 253 257 263 265 259 264 267
190 210 210 161 191 233 204 275 223 218 218 221 228 221 223 222 217 216 214 212 217 222 222 223 219 222 225 226 227 234 235 236 240 241 245 247 242 246 247 243 243 250 253 256 258 259 262 261 258
170 165 171 187 221 286 201 251 248 220 219 215 219 222 222 224 220 218 213 231 228 226 229 228 228 227 230 233 234 236 239 242 247 246 247 243 245 244 252 250 245 246 248 253 258 262 260 263 266
129 136 135 166 219 247 230 217 255 224 221 237 230 224 224 222 224 223 230 231 233 232 233 234 234 234 234 235 237 235 240 240 238 239 241 243 245 246 243 247 243 244 250 257 262 263 265 267 269
169 166 162 203 209 238 50 226 246 242 256 240 250 235 227 228 229 227 218 230 234 233 234 235 235 235 235 236 238 237 239 242 241 242 242 246 249 247 243 237 240 238 255 255 254 261 266 265 263
190 190 179 189 198 202 83 228 240 252 257 248 246 249 256 231 227 227 221 234 239 241 240 236 233 232 232 236 238 239 240 240 241 244 247 249 249 248 246 241 241 246 245 251 258 259 259 259 257
195 216 195 106 27 202 200 243 256 264 240 225 240 225 234 238 232 230 227 231 235 241 239 234 230 229 230 233 237 237 237 238 241 244 246 248 248 248 244 242 239 238 245 254 251 258 253 252 254
208 162 185 223 182 214 188 258 252 199 264 225 223 228 238 236 231 231 233 230 235 239 234 227 227 228 230 232 234 236 236 238 242 243 244 247 245 248 246 244 240 241 243 249 251 252 249 249 251
173 189 208 191 211 209 173 201 24 345 18 332 330 320 287 234 221 225 233 233 240 246 235 226 223 223 226 230 233 236 239 241 242 243 244 247 249 248 246 246 239 237 240 244 248 243 242 245 245
199 196 196 190 178 189 73 273 129 142 15 320 319 335 222 190 200 208 221 218 228 228 223 219 218 220 224 228 232 235 237 239 240 241 243 246 249 250 247 244 233 230 234 239 250 239 239 242 247
Wind_Speed_850mb
13 20 18 9 10 9 7 11 8 14 14 9 18 3 9 14 15 9 32 24 30 22 18 22 26 21 18 20 19 25 24 24 24 20 17 19 21 20 19 21 23 23 22 24 26 27 28 29 33
10 13 7 8 12 13 11 14 16 17 18 18 14 7 5 11 12 27 28 33 31 25 20 21 26 20 17 21 22 21 19 18 21 18 19 15 16 17 18 23 22 23 24 27 29 29 29 31 33
8 5 11 7 12 12 6 13 19 16 20 20 9 2 4 10 13 37 23 39 33 26 23 22 24 21 19 19 20 20 21 24 23 19 17 12 19 20 23 27 24 18 27 28 28 29 29 29 30
5 4 6 12 10 4 11 11 22 22 10 10 1 9 9 7 26 19 40 36 34 28 23 24 22 20 18 18 21 21 20 17 20 18 15 21 26 22 20 29 21 18 26 26 26 28 29 29 29
8 7 4 8 13 5 3 3 17 21 18 19 13 10 7 16 21 33 41 35 32 29 26 24 22 20 18 19 21 23 23 21 20 19 19 22 22 24 32 27 21 20 23 22 26 27 28 29 29
16 9 12 19 19 8 5 7 20 20 16 15 11 13 10 20 27 42 38 34 30 30 28 25 23 20 20 19 21 24 23 24 24 25 23 24 25 25 26 22 24 23 22 23 25 25 26 27 27
19 14 23 15 11 14 11 14 25 23 19 18 3 14 9 27 28 48 36 34 33 30 29 27 24 23 21 20 19 21 21 22 23 22 20 21 19 21 21 22 22 22 21 22 23 24 24 25 26
15 12 18 15 16 12 16 19 21 26 19 13 12 10 12 38 40 50 35 32 33 31 30 28 26 23 23 22 19 19 20 18 18 16 17 18 16 16 17 18 19 19 20 21 22 22 22 23 24
9 15 20 24 18 9 13 18 14 15 13 19 17 2 9 46 48 54 39 34 32 32 32 29 29 25 24 23 21 18 18 16 15 14 14 16 13 13 11 14 15 15 17 18 19 19 19 20 22
13 19 27 5 12 5 15 17 21 15 24 23 20 12 25 39 52 58 51 45 39 36 39 37 29 27 25 23 22 19 18 15 14 13 13 17 14 9 9 10 11 11 12 14 15 15 14 17 13
14 21 16 12 8 3 6 16 16 27 25 29 31 28 36 42 51 56 55 50 42 40 43 43 40 29 28 23 25 21 20 18 16 13 12 14 12 10 7 8 8 7 7 9 10 12 11 10 9
11 24 17 13 13 10 9 7 17 32 23 15 22 35 42 45 53 57 55 47 45 42 42 46 42 38 34 28 27 22 21 19 16 14 12 14 12 11 9 6 5 4 4 5 5 7 8 7 6
31 29 25 14 15 13 10 18 20 29 36 14 18 37 42 41 46 48 48 45 44 43 42 48 45 43 39 34 27 22 24 22 20 17 16 14 14 13 11 8 6 5 4 3 2 1 5 5 5
33 22 25 19 18 12 13 18 9 19 29 30 25 37 39 42 44 43 46 49 53 45 44 46 49 41 43 40 35 29 23 26 25 23 21 19 17 15 13 11 10 8 7 6 5 4 4 5 4
15 22 16 20 19 12 15 24 24 28 21 36 32 34 35 36 41 46 46 50 55 47 42 45 50 45 43 41 36 34 31 29 29 29 26 23 22 20 18 17 15 13 10 9 9 8 7 8 8
21 17 20 25 26 12 16 39 34 38 31 37 39 38 38 40 44 44 43 46 45 55 47 53 50 50 45 43 41 37 35 34 33 31 32 31 28 26 23 22 21 18 15 13 11 10 10 9 10
29 21 34 20 36 19 24 31 42 22 36 39 40 43 41 38 40 42 44 46 49 53 54 54 53 52 49 45 44 40 41 39 35 36 37 36 34 32 29 28 24 23 18 13 14 18 16 13 11
25 31 31 34 25 32 26 35 31 20 33 40 38 38 39 40 46 48 48 47 48 49 50 50 54 54 51 47 46 43 44 43 38 37 40 40 39 38 34 31 28 22 18 17 18 15 22 19 19
34 35 29 28 19 22 38 36 40 37 30 33 37 41 42 46 40 43 50 50 50 50 52 50 52 54 54 57 55 53 49 42 44 41 41 41 40 40 35 29 27 27 24 21 20 18 14 14 17
37 35 29 7 15 15 28 38 37 42 36 34 42 43 43 42 39 48 53 56 58 57 59 57 57 58 62 61 59 57 50 46 45 41 39 39 46 39 35 35 33 33 30 29 28 26 22 21 22
32 31 29 24 18 19 13 33 37 42 48 42 42 37 47 45 47 48 52 56 60 65 67 67 66 63 63 63 58 57 47 50 49 48 46 46 42 44 43 41 39 38 35 35 34 34 35 34 31
32 25 17 17 17 16 16 14 23 47 43 38 54 51 49 46 51 49 54 57 62 68 66 67 66 65 64 63 66 64 63 62 59 55 54 49 47 43 45 48 47 46 43 43 41 42 43 44 44
13 25 20 15 15 15 18 12 11 19 31 45 51 60 61 61 55 55 62 66 66 65 71 72 69 68 72 72 70 68 66 63 57 52 50 47 47 47 46 47 54 52 48 45 44 42 43 48 48
29 25 18 10 10 14 29 22 16 25 32 33 46 65 69 67 65 60 62 64 63 63 71 72 74 73 73 75 72 73 72 65 58 58 53 54 48 45 48 40 38 41 40 41 38 43 44 45 46
29 34 11 12 13 14 5 19 30 12 19 28 30 47 57 62 64 59 52 66 67 69 69 70 75 78 77 75 74 75 74 69 65 63 61 57 55 54 49 50 43 40 38 42 42 44 44 45 44
36 36 11 15 11 12 2 15 11 22 35 41 26 25 18 26 35 45 53 62 68 72 69 69 76 80 81 79 76 72 73 75 73 69 68 64 61 57 51 53 52 48 44 45 43 43 44 41 39
34 34 2 9 4 3 14 16 16 32 20 19 23 26 34 32 29 33 43 48 51 57 64 71 76 81 79 77 71 68 73 73 71 72 71 69 62 59 60 59 55 50 51 50 43 45 45 42 42
26 25 16 10 12 11 6 8 17 4 10 8 9 23 25 30 33 35 37 35 35 43 50 60 64 65 67 63 62 63 65 69 67 67 67 65 61 65 58 58 60 55 52 52 50 47 45 44 45
16 25 14 14 7 6 5 4 2 3 6 9 10 12 11 15 19 25 35 38 34 32 38 46 54 56 56 57 56 55 56 58 59 62 63 65 67 65 62 64 63 59 56 56 50 48 47 48 46
29 28 30 13 12 3 5 7 7 6 1 7 9 8 3 5 11 15 21 27 28 29 31 35 42 48 49 49 48 49 52 54 56 59 61 65 61 58 58 60 59 55 52 48 51 48 49 50 48
Wind_Direction_850mb
321 344 346 292 245 253 143 153 110 137 141 96 117 135 32 15 3 62 139 135 133 135 125 116 118 112 116 100 117 144 132 127 118 120 111 108 102 97 92 82 73 80 83 73 71 66 62 65 70
319 338 314 276 261 223 144 129 168 154 120 142 126 128 157 87 68 131 139 144 135 134 129 126 127 119 115 104 112 132 157 150 139 134 121 105 101 93 102 110 85 78 80 77 72 70 68 73 74
298 348 280 292 265 259 126 171 147 116 138 155 130 15 73 89 109 138 159 145 139 136 138 135 134 130 116 100 109 117 115 115 114 117 111 104 96 100 100 104 96 90 81 74 74 69 68 70 70
287 308 217 253 242 290 355 173 131 143 146 170 163 137 97 138 146 151 148 148 143 141 146 139 141 130 116 100 104 107 113 115 115 108 110 117 112 103 106 113 104 93 82 74 72 67 66 67 72
232 217 215 252 241 263 187 299 174 176 160 175 187 136 101 126 150 148 149 149 150 144 150 145 143 140 128 110 110 107 109 108 111 110 106 105 110 94 111 109 108 93 86 79 70 68 69 71 73
224 260 224 210 212 185 195 194 190 188 162 151 193 154 126 157 158 155 152 153 154 153 154 151 149 145 136 121 115 112 108 103 106 103 103 100 97 100 103 100 106 92 82 73 68 69 69 72 72
243 227 244 249 212 199 197 175 196 188 182 189 180 187 133 165 172 161 157 160 159 161 160 159 156 151 145 136 127 122 117 113 110 115 120 110 109 104 99 98 94 91 82 73 68 67 68 69 68
232 248 242 233 218 225 152 175 199 197 184 147 184 188 179 178 175 166 162 167 164 165 165 163 164 159 154 153 149 128 128 127 125 122 102 110 107 98 97 99 92 85 77 70 68 71 72 73 69
202 233 230 228 222 199 153 192 195 188 171 189 194 206 118 179 176 170 169 173 176 170 178 169 169 168 167 166 160 153 146 140 138 134 128 109 99 108 106 103 100 90 80 71 66 67 71 77 70
204 230 235 206 249 221 174 213 174 190 195 203 190 183 150 182 183 180 178 178 183 180 184 183 172 176 174 174 167 167 165 161 157 147 137 140 146 148 115 117 108 100 88 79 74 69 72 66 67
200 233 245 200 191 194 206 207 201 211 200 217 208 188 170 179 187 190 191 192 188 187 193 191 179 184 179 186 178 180 181 182 176 170 159 160 157 154 126 124 124 116 105 83 74 69 73 73 76
200 235 246 192 174 168 203 212 208 224 211 202 217 191 180 189 193 197 198 194 192 194 202 197 196 196 193 196 190 194 194 194 193 188 183 176 172 164 170 156 152 150 146 131 99 75 68 69 63
219 204 222 197 182 194 183 220 230 227 233 241 182 185 189 195 198 200 203 198 198 198 198 206 202 205 205 203 203 199 205 205 206 206 203 197 192 188 189 193 206 217 218 199 180 14 27 39 29
203 201 210 201 202 205 219 226 194 240 227 217 192 191 195 198 201 198 200 204 206 202 202 209 204 209 210 214 217 207 210 213 217 217 215 211 209 214 212 215 219 226 234 241 247 270 304 323 340
189 190 200 199 201 219 219 235 225 232 211 210 204 197 198 203 203 206 204 208 212 202 205 207 210 207 215 213 224 222 220 222 223 225 226 226 228 230 233 233 233 239 239 245 252 263 277 294 301
183 208 206 215 208 210 202 250 231 226 205 209 211 203 199 202 207 208 208 209 211 208 207 210 213 212 219 215 225 226 227 229 229 232 235 232 232 235 238 241 238 242 246 249 258 266 275 277 282
191 196 211 211 213 199 213 249 243 211 213 218 211 209 204 203 208 211 208 207 207 211 210 215 214 216 220 221 226 226 232 230 233 232 236 238 237 238 241 247 240 241 245 266 283 284 270 264 277
179 214 202 211 194 211 218 238 244 209 217 221 214 212 212 207 213 207 209 206 206 208 209 214 214 217 220 223 225 226 230 229 227 233 238 239 237 241 244 242 237 243 251 259 265 276 276 269 277
190 203 201 210 154 199 227 237 236 228 217 220 221 213 216 217 208 208 208 206 205 206 206 207 207 214 215 218 222 224 228 228 232 233 235 239 238 245 240 230 233 246 252 258 256 269 291 278 277
200 200 210 172 166 221 241 242 240 240 215 219 219 218 219 217 208 208 207 207 209 208 210 208 211 215 218 224 228 231 235 237 242 245 240 240 244 241 235 240 241 244 250 255 261 267 272 271 275
192 198 209 221 178 232 279 262 245 238 239 229 227 224 222 219 213 210 205 208 212 214 215 217 218 217 220 224 228 232 233 237 236 236 241 238 240 238 241 244 247 250 253 257 263 265 259 264 267
190 210 210 161 191 233 204 275 223 218 218 221 228 221 223 222 217 216 214 212 217 222 222 223 219 222 225 226 227 234 235 236 240 241 245 247 242 246 247 243 243 250 253 256 258 259 262 261 258
170 165 171 187 221 286 201 251 248 220 219 215 219 222 222 224 220 218 213 231 228 226 229 228 228 227 230 233 234 236 239 242 247 246 247 243 245 244 252 250 245 246 248 253 258 262 260 263 266
129 136 135 166 219 247 230 217 255 224 221 237 230 224 224 222 224 223 230 231 233 232 233 234 234 234 234 235 237 235 240 240 238 239 241 243 245 246 243 247 243 244 250 257 262 263 265 267 269
169 166 162 203 209 238 50 226 246 242 256 240 250 235 227 228 229 227 218 230 234 233 234 235 235 235 235 236 238 237 239 242 241 242 242 246 249 247 243 237 240 238 255 255 254 261 266 265 263
190 190 179 189 198 202 83 228 240 252 257 248 246 249 256 231 227 227 221 234 239 241 240 236 233 232 232 236 238 239 240 240 241 244 247 249 249 248 246 241 241 246 245 251 258 259 259 259 257
195 216 195 106 27 202 200 243 256 264 240 225 240 225 234 238 232 230 227 231 235 241 239 234 230 229 230 233 237 237 237 238 241 244 246 248 248 248 244 242 239 238 245 254 251 258 253 252 254
208 162 185 223 182 214 188 258 252 199 264 225 223 228 238 236 231 231 233 230 235 239 234 227 227 228 230 232 234 236 236 238 242 243 244 247 245 248 246 244 240 241 243 249 251 252 249 249 251
173 189 208 191 211 209 173 201 24 345 18 332 330 320 287 234 221 225 233 233 240 246 235 226 223 223 226 230 233 236 239 241 242 243 244 247 249 248 246 246 239 237 240 244 248 243 242 245 245
199 196 196 190 178 189 73 273 129 142 15 320 319 335 222 190 200 208 221 218 228 228 223 219 218 220 224 228 232 235 237 239 240 241 243 246 249 250 247 244 233 230 234 239 250 239 239 242 247